Location: Saint André
(43.5594°N, 1.3519°W)
Time: 04:32:55
(UTC+00:00)

CZ-4B R/B - Pass Details

Date: 22 March 2025
Orbit: 699 x 799 km, 98.9° (Epoch: 22 April)

Event Time Altitude Azimuth Distance (km) Brightness Sun altitude
Exits shadow 20:08:48 18° 169° (S) 1,868 5.2 -20.0°
Maximum altitude 20:12:46 80° 255° (WSW) 798 3.6 -20.6°
Drops below altitude 10° 20:17:54 10° 344° (NNW) 2,317 6.5 -21.5°
Sets 20:20:11 0° 345° (NNW) 3,232 7.3 -21.9°
